Regional Weather Roundup
Issued by NWS Newport/Morehead, NC

Current Version | Previous Version | Text Only | Print | Product List | Glossary Off
Versions: 1 2 3 4 5 6 7 8 9 10 11 12 13 14 15 16 17 18 19 20 21 22 23 24 25 26 27 28 29 30 31 32 33 34 35 36 37 38 39 40 41 42 43 44 45 46 47 48 49 50
024 ASUS42 KMHX 300225 RWRMHX WEATHER ROUNDUP FOR EASTERN NORTH CAROLINA NATIONAL WEATHER SERVICE NEWPORT/MOREHEAD CITY NC 1000 PM EDT FRI APR 29 2016 NOTE: "FAIR" INDICATES FEW OR NO CLOUDS BELOW 12,000 FEET WITH NO SIGNIFICANT WEATHER AND/OR OBSTRUCTIONS TO VISIBILITY NCZ015>017-031-032-045>047-102-103-300300- NORTH COAST CITY SKY/WX TMP DP RH WIND PRES REMARKS EDENTON CLOUDY 61 60 95 E5 30.04S ELIZABETH CITY CLOUDY 57 54 89 NE6 30.04R KITTY HAWK CLOUDY 55 54 95 N3 30.02F FOG MANTEO NOT AVBL $$ NCZ045>047-081-094-103-104-300300- CENTRAL COAST CITY SKY/WX TMP DP RH WIND PRES REMARKS FRISCO CLOUDY 60 57 89 N8G17 30.02R SWANQUARTER NOT AVBL $$ NCZ095-097-098-100-101-300300- SOUTHERN COAST CITY SKY/WX TMP DP RH WIND PRES REMARKS BEAUFORT PTCLDY 62 58 86 CALM 30.02R CEDAR ISLAND NOT AVBL JACKSONVILLE CLEAR 65 58 78 E8 30.00R PINEY ISLAND NOT AVBL WILMINGTON CLEAR 65 61 87 CALM 30.00R $$ NCZ011>013-027>030-043-044-078>080-089-090>093-098-300300- COASTAL PLAIN CITY SKY/WX TMP DP RH WIND PRES REMARKS AHOSKIE CLOUDY 60 57 89 NE3 30.03S CLINTON CLEAR 66 61 84 CALM 30.01R ELIZABETHTOWN CLEAR 68 59 74 CALM 30.00R GOLDSBORO CLEAR 61 61 100 E7 29.98S GREENVILLE CLOUDY 61 59 94 CALM 30.02S HAVELOCK CLEAR 60 57 89 CALM 30.02R KENANSVILLE CLEAR 61 58 91 CALM 30.01S KINSTON PTCLDY 62 60 92 CALM 30.01S NEW BERN CLEAR 63 58 83 E7 30.01S RICHLANDS CLEAR 61 58 90 NE5 30.01R ROCKY MOUNT PTCLDY 58 58 100 CALM 30.01R WASHINGTON CLOUDY 59 57 92 CALM 30.01S WHITEVILLE PTCLDY 68 64 87 SE3 30.00R $$ AMZ130-135-150-152-154-156-158-170-250-252-270-ANZ085-086-088-633-658-670-300300- MARINE OBSERVATIONS STATION/POSITION TIME TEMP WIND PRES WAVE SWELL AIR SEA DIR/SP/G HT/PER HT/PER (UTC) (F) (DEG/KT/KT) (MB) (FT/S) (FT/S) CHESAPEAKE LIGHT 0200 53 30/ 13/ 14 1017.9 64 E VA BEACH 0150 53 53 360/ 10/ 14 1016.1 5/ 8 5/ 8 DUCK 0200 55 67 1016.5 2 E DUCK 0111 58 N/A 4/ 6 OREGON INLET 0200 55 63 1016.9 13E OREGON INLT 0200 58 N/A 5/ 8 3/ 8 HATTERAS CG 0200 61 71 1016.2 DIAMOND BUOY 0150 59 74 10/ 19/ 23 1016.3 4/ 5 2/11 CAPE LOOKOUT 0200 66 350/ 8/ 9 1016.1 BEAUFORT LAB 0200 65 69 1015.6 30 SE NEW RVR IN 0125 68 N/A 2/ 6 27 SE WRIGHTSVLE 0208 69 69 70/ 12/ 16 1015.6 5 SE WRIGHTSVLE 0108 69 68 110/ 10/ 14 1015.8 225 S CAPE HAT 0150 72 71 280/ 6/ 8 1015.3 3/ 6 3/ 6 41 SE CHARLESTON 0150 73 72 120/ 8/ 8 1015.1 2/10 2/10 $$

USA.gov is the U.S. government's official web portal to all federal, state and local government web resources and services.